Flag for Germany Weather past 2 weeks in Friesoythe, Lower Saxony, Germany

Now
46 °F

Cool.


Feels Like: 46 °F
Forecast: 47 / 72 °F
Wind: 2 mph from Northeast

Location: Meppen-Mil


UV Index: 3 (Moderate)

Visibility: 0 mi


Pressure: 30.12 "Hg

Humidity: 93%

Dew point: 45 °F

Location of FriesoytheLocation

Historic Weather in Friesoythe

°F

Friesoythe temperature yesterday

Maximum temperature yesterday: 68 °F (at 2:20 PM)
Minimum temperature yesterday: 41 °F (at 4:20 AM)
Average temperature yesterday: 55 °F

Past Weeks' High & Low Weather Summary

 TemperatureHumidityPressure
High70 °F (Apr 20, 4:20 PM)100% (Apr 12, 9:20 AM)30.48 "Hg (Apr 12, 9:20 AM)
Low28 °F (Apr 16, 5:20 AM)27% (Apr 16, 4:20 PM)29.68 "Hg (Apr 21, 2:20 PM)
Average50 °F71%30.04 "Hg
* Reported Apr 9 2:20 AM — Apr 24 2:20 AM, Friesoythe, Weather by CustomWeather, © 2014

Note: Actual official high and low records may vary slightly from our data, if they occured in-between our weather recording intervals... More about our weather records

Advertising

Historic Weather Conditions — Data for Previous 24 hours

 ConditionsComfort  
Time TempWeatherWind HumidityBarometerVisibility
2:20 AM
Apr 24
48 °FCool.3 mph94%30.12 "Hg0 mi
1:20 AM50 °FCool.3 mph100%30.12 "Hg0 mi
12:20 AM50 °FCool.3 mph94%30.12 "Hg0 mi
11:20 PM
Apr 23
52 °FCool.2 mph94%30.12 "Hg0 mi
10:20 PM52 °FCool.3 mph94%30.12 "Hg1 mi
9:20 PM54 °FCool.3 mph82%30.12 "Hg4 mi
8:20 PM55 °FCool.8 mph82%30.09 "Hg4 mi
7:20 PM64 °FMild.6 mph56%30.09 "Hg4 mi
6:20 PM66 °FMild.1 mph43%30.07 "Hg6 mi
5:20 PM68 °FMild.3 mph38%30.07 "Hg5 mi
4:20 PM68 °FMild.6 mph40%30.09 "Hg5 mi
3:20 PM68 °FMild.5 mph40%30.09 "Hg5 mi
2:20 PM68 °FPartly sunny.5 mph43%30.09 "HgN/A
1:20 PM66 °FScattered clouds.5 mph43%30.12 "HgN/A
12:20 PM66 °FScattered clouds.5 mph46%30.12 "HgN/A
11:20 AM63 °FPartly sunny.6 mph59%30.12 "Hg5 mi
10:20 AM59 °FPartly sunny.5 mph72%30.12 "Hg3 mi
9:20 AM54 °FFog.2 mph94%30.09 "Hg2 mi
8:20 AM46 °FFog.2 mph100%30.09 "Hg0 mi
7:20 AM41 °FFog.1 mph100%30.09 "Hg0 mi
6:20 AM41 °FQuite cool.No wind93%30.07 "Hg0 mi
5:20 AM41 °FQuite cool.No wind93%30.07 "Hg0 mi
4:20 AM41 °FQuite cool.1 mph93%30.07 "Hg0 mi
3:20 AM43 °FQuite cool.1 mph93%30.04 "Hg0 mi
Weather by CustomWeather, © 2014

See weather overview